Regional Weather Roundup
Issued by NWS

Home | Current Version | Previous Version | Text Only | Print | Product List | Glossary On
Versions: 1 2 3 4 5 6 7 8 9 10 11 12 13 14 15 16 17 18 19 20 21 22 23 24 25 26 27 28 29 30 31 32 33 34 35 36 37 38 39 40 41 42 43 44 45 46 47 48 49 50
274
ASUS43 KIND 010409
RWRIN

WEATHER ROUNDUP FOR INDIANA
NATIONAL WEATHER SERVICE INDIANAPOLIS IN
1200 AM EDT SAT OCT 01 2016

NOTE: "FAIR" INDICATES FEW OR NO CLOUDS BELOW 12,000 FEET WITH NO
SIGNIFICANT WEATHER AND/OR OBSTRUCTIONS TO VISIBILITY.

* - STATION DOES NOT REPORT WEATHER SUCH AS PRECIPITATION OR FOG.

+ - STATION NOT QUALITY CONTROLLED BY THE NATIONAL WEATHER SERVICE.
    USE DATA WITH CAUTION...ESPECIALLY DEWPOINT AND RELATIVE
    HUMIDITY OBSERVATIONS.

INZ001>003-010>013-019-020-010500-
NORTHWEST INDIANA

CITY           SKY/WX    TMP DP  RH WIND       PRES   REMARKS
GARY /AIRPORT/ CLOUDY    63  61  93 NE10      30.05R
KNOX *+        CLEAR     55  50  82 E6        30.04R
LA PORTE +     CLEAR    N/A N/A N/A E7        30.06R
MICHIGAN CITY+ PTCLDY    57  57 100 CALM      30.06R
MONTICELLO +   DRIZZLE   60  55  83 NE6       30.02R
RENSSELAER +   CLOUDY    61  59  94 NE6       30.03S
VALPARAISO     MOCLDY    58  57  97 E8        30.05R

$$

LMZ046-743>745-010500-
SOUTHERN LAKE MICHIGAN

STATION/POSITION TIME  TEMP    WIND        PRES    WAVE
                       AIR SEA DIR/SP/G            HT
                 (UTC) (F)     (DEG/KT/KT) (MB)    (FT)
BURNS HARBOR     0340   62      80/ 13/ 16 1017.6R
MICHIGAN CITY    0340   60      40/  9/ 10   N/A
5NW MICH CITY    0400   61 64   70/ 12/ 16   N/A     4

$$

INZ004-005-014>016-021>024-010500-
NORTH CENTRAL INDIANA

CITY           SKY/WX    TMP DP  RH WIND       PRES   REMARKS
GOSHEN         CLOUDY    60  56  86 NE6       30.05F
LOGANSPORT +   CLOUDY    59  55  88 E6        30.03S
PERU/GRISSOM   CLOUDY    60  59  97 NE8       30.01R
ROCHESTER +    CLOUDY    61  61 100 E7        30.04S
SOUTH BEND     CLOUDY    59  57  93 E5        30.07S
WARSAW +       CLOUDY    59  54  82 E9        30.04F

$$

INZ006>009-017-018-025>027-010500-
NORTHEAST INDIANA

CITY           SKY/WX    TMP DP  RH WIND       PRES   REMARKS
ANGOLA *+        N/A     59  48  67 E6        30.05F
AUBURN +       CLOUDY    59  55  88 NE6       30.05S
FORT WAYNE     CLOUDY    59  57  93 NE10      30.04S
HUNTINGTON +   CLOUDY    58  57  96 CALM      30.02S
KENDALLVILLE + MOCLDY    58  58  97 E5        30.05F

$$

INZ028-029-035-036-043>045-051>053-010500-
WEST CENTRAL INDIANA

CITY           SKY/WX    TMP DP  RH WIND       PRES   REMARKS
CRAWFORDSVL +  CLOUDY    57  57 100 CALM      29.99S
GREENCASTLE +  CLOUDY    55  55 100 CALM      30.00S FOG
LAFAYETTE      CLOUDY    60  59  96 NE9       30.00S
TERRE HAUTE    CLOUDY    58  56  93 SE5       30.00S

$$

INZ030>032-037>040-046>048-054>057-064-065-010500-
CENTRAL INDIANA

CITY           SKY/WX    TMP DP  RH WIND       PRES   REMARKS
FISHERS *+     CLOUDY    55  55 100 CALM      30.01S
FRANKFORT +    CLOUDY    62  60  93 E3        30.02S
GREENWOOD *+   CLOUDY    55  55 100 CALM      30.02R
INDIANAPOLIS   CLOUDY    57  56  96 SE7       30.00S
-EAGLE CREEK   CLOUDY    59  56  89 CALM      30.00R
KOKOMO *+      CLOUDY    59  58  96 E7        30.02S
MARION +       CLOUDY    59  57  95 E7        30.02S
MT COMFORT *+  CLOUDY    55  54  94 CALM      30.01S
SHELBYVILLE    CLOUDY    57  51  80 S5        30.00S
ZIONSVILLE +   MOCLDY    54  54  99 CALM      30.02R FOG

$$

INZ033-034-041-042-049-050-058-059-010500-
EAST CENTRAL INDIANA

CITY           SKY/WX    TMP DP  RH WIND       PRES   REMARKS
MUNCIE         CLOUDY    61  58  90 S5        30.01F

$$

INZ060-061-067>069-081>083-085>088-010500-
SOUTHWEST INDIANA

CITY           SKY/WX    TMP DP  RH WIND       PRES   REMARKS
EVANSVILLE     PTCLDY    57  55  93 CALM      30.01S FOG
HUNTINGBURG *+   N/A     54  50  87 SE6       30.01S
WASHINGTON +   PTCLDY    53  53 100 CALM      30.01R

$$

INZ062-063-066-070>080-084-089>092-010500-
SOUTH CENTRAL AND SOUTHEAST INDIANA

CITY           SKY/WX    TMP DP  RH WIND       PRES   REMARKS
BLOOMINGTON    CLOUDY    54  51  90 SE5       30.01S
MADISON *+     CLOUDY    54  52  94 CALM      30.04S
NORTH VERNON + PTCLDY   N/A N/A N/A CALM      30.03S
SEYMOUR +      CLEAR     52  50  93 CALM      30.02

$$





USA.gov is the U.S. government's official web portal to all federal, state and local government web resources and services.